CW2927 Weather Reports


time (UTC)temp
F
wind
direction
speed
knots
gust
knots
rain 1hr
in
rain 24hr
in
rain mn
in
humidity
%
barometer
mb
20260902102704 61 110 1.7 5.2 0.00 0.00 0.00 86 1018.0
20260902102204 61 95 1.7 4.3 0.00 0.00 0.00 86 1017.9
20260902100704 61 123 1.7 4.3 0.00 0.00 0.00 86 1017.9
20260902100204 61 121 1.7 6.1 0.00 0.00 0.00 86 1017.8
20260902092703 60 130 0.9 2.6 0.00 0.00 0.00 86 1017.8
20260902092204 60 130 1.7 4.3 0.00 0.00 0.00 86 1017.8
20260902090704 61 106 0.9 2.6 0.00 0.00 0.00 85 1017.7
20260902090204 61 104 0.9 2.6 0.00 0.00 0.00 84 1017.8
20260902084704 61 103 0.9 2.6 0.00 0.00 0.00 84 1017.7
20260902084204 61 103 1.7 6.1 0.00 0.00 0.00 84 1017.7
20260902082703 62 120 1.7 6.1 0.00 0.00 0.00 83 1017.7
20260902082204 62 100 0.9 7.0 0.00 0.00 0.00 83 1017.6
20260902080703 62 110 1.7 5.2 0.00 0.00 0.00 84 1017.5
20260902080203 62 115 2.6 7.0 0.00 0.00 0.00 84 1017.6
20260902074706 62 100 2.6 5.2 0.00 0.00 0.00 85 1017.6
20260902074205 62 109 2.6 4.3 0.00 0.00 0.00 85 1017.6
20260902072705 62 113 0.0 1.7 0.00 0.00 0.00 85 1017.5
20260902072205 62 113 0.9 5.2 0.00 0.00 0.00 85 1017.5
20260902070706 62 101 1.7 4.3 0.00 0.00 0.00 86 1017.6
20260902070205 62 121 2.6 5.2 0.00 0.00 0.00 86 1017.6
20260902064706 61 113 0.9 4.3 0.00 0.00 0.00 87 1017.7
20260902064205 61 120 1.7 2.6 0.00 0.00 0.00 87 1017.6
20260902062705 60 85 0.0 0.9 0.00 0.00 0.00 86 1017.7
20260902062205 60 85 0.0 1.7 0.00 0.00 0.00 86 1017.6
20260902060705 60 85 0.0 1.7 0.00 0.00 0.00 86 1017.6
20260902060205 60 85 0.9 2.6 0.00 0.00 0.00 85 1017.5
20260902054705 60 84 0.9 1.7 0.00 0.00 0.00 85 1017.6
20260902054206 60 84 0.9 2.6 0.00 0.00 0.00 85 1017.5
20260902052205 60 61 0.0 1.7 0.00 0.00 0.00 84 1017.5
20260902050705 60 61 0.9 2.6 0.00 0.00 0.00 83 1017.5
20260902050205 60 60 0.0 2.6 0.00 0.00 0.00 83 1017.4
20260902044705 60 57 0.9 1.7 0.00 0.00 0.00 83 1017.3
20260902044205 60 57 0.9 2.6 0.00 0.00 0.00 83 1017.3
20260902042706 60 57 0.9 1.7 0.00 0.00 0.00 83 1017.2
20260902042205 60 57 1.7 2.6 0.00 0.00 0.00 83 1017.1
20260902040705 60 56 0.9 1.7 0.00 0.00 0.00 83 1017.0
20260902040205 60 56 0.0 4.3 0.00 0.00 0.00 83 1016.9
20260902034705 60 69 1.7 2.6 0.00 0.00 0.00 82 1016.7
20260902034205 60 69 1.7 4.3 0.00 0.00 0.00 82 1016.7
20260902032705 60 71 1.7 2.6 0.00 0.00 0.00 81 1016.6
20260902032205 60 70 1.7 5.2 0.00 0.00 0.00 81 1016.6
20260902030705 60 68 2.6 4.3 0.00 0.00 0.00 80 1016.5
20260902030205 61 75 1.7 4.3 0.00 0.00 0.00 80 1016.5
20260902024705 61 53 1.7 4.3 0.00 0.00 0.00 79 1016.6
20260902024205 61 47 2.6 5.2 0.00 0.00 0.00 79 1016.5
20260902022204 62 29 2.6 4.3 0.00 0.00 0.00 79 1016.4
20260902020705 62 64 1.7 4.3 0.00 0.00 0.00 78 1016.3
20260902020205 62 29 2.6 6.1 0.00 0.00 0.00 78 1016.3
20260902014705 63 30 1.7 4.3 0.00 0.00 0.00 77 1016.4
20260902014205 63 43 1.7 4.3 0.00 0.00 0.00 77 1016.3
20260902012705 64 49 2.6 4.3 0.00 0.00 0.00 76 1016.4
20260902010705 65 49 0.9 2.6 0.00 0.00 0.00 75 1016.3
20260902010205 65 65 1.7 5.2 0.00 0.00 0.00 75 1016.3
20260902004705 65 34 2.6 6.1 0.00 0.00 0.00 74 1016.3
20260902004207 66 67 2.6 6.1 0.00 0.00 0.00 74 1016.2
20260902002705 66 23 2.6 5.2 0.00 0.00 0.00 72 1016.1
20260902002205 67 33 3.5 6.1 0.00 0.00 0.00 72 1016.2
20260902000205 68 61 1.7 7.0 0.00 0.00 0.00 70 1016.0
20260901232704 70 57 4.3 10.4 0.00 0.00 0.00 64 1016.3
20260901232205 71 46 3.5 7.0 0.00 0.00 0.00 62 1016.3
20260901230705 73 30 1.7 2.6 0.00 0.00 0.00 50 1016.2
20260901230204 73 38 1.7 2.6 0.00 0.00 0.00 48 1016.2
20260901224705 74 81 0.9 2.6 0.00 0.00 0.00 47 1016.3
20260901224205 74 81 0.9 6.1 0.00 0.00 0.00 46 1016.3
20260901222705 75 69 1.7 2.6 0.00 0.00 0.00 46 1016.2
20260901222205 75 77 1.7 6.1 0.00 0.00 0.00 45 1016.2
20260901220205 75 67 4.3 7.8 0.00 0.00 0.00 44 1016.2
20260901214705 76 43 2.6 6.1 0.00 0.00 0.00 42 1016.1
20260901214205 76 82 3.5 8.7 0.00 0.00 0.00 43 1016.1
20260901212704 76 84 2.6 4.3 0.00 0.00 0.00 43 1016.1
20260901212204 76 50 1.7 7.0 0.00 0.00 0.00 43 1016.0
20260901210704 77 71 1.7 6.1 0.00 0.00 0.00 44 1016.2
20260901204705 76 53 4.3 7.8 0.00 0.00 0.00 42 1016.1
20260901202704 76 80 2.6 4.3 0.00 0.00 0.00 43 1015.8
20260901202204 76 132 3.5 7.8 0.00 0.00 0.00 43 1015.8
20260901200705 76 57 2.6 4.3 0.00 0.00 0.00 43 1015.9
20260901200205 76 84 2.6 6.1 0.00 0.00 0.00 43 1015.9
20260901194705 76 53 1.7 7.8 0.00 0.00 0.00 45 1016.0
20260901194205 76 54 2.6 7.0 0.00 0.00 0.00 45 1016.0
20260901192705 76 95 2.6 6.1 0.00 0.00 0.00 44 1016.1
20260901192205 76 81 2.6 7.8 0.00 0.00 0.00 47 1016.1
20260901190705 75 147 1.7 7.0 0.00 0.00 0.00 47 1016.2
20260901184705 74 5 1.7 4.3 0.00 0.00 0.00 54 1016.6
20260901184205 74 40 2.6 8.7 0.00 0.00 0.00 53 1016.6
20260901182704 74 36 2.6 6.1 0.00 0.00 0.00 52 1016.5
20260901182204 74 52 2.6 8.7 0.00 0.00 0.00 53 1016.5
20260901180704 74 74 3.5 7.0 0.00 0.00 0.00 55 1016.3
20260901174705 73 89 4.3 8.7 0.00 0.00 0.00 55 1016.7
20260901174204 73 65 2.6 8.7 0.00 0.00 0.00 57 1016.7
20260901172704 73 56 3.5 7.8 0.00 0.00 0.00 58 1016.7
20260901172204 73 94 1.7 7.0 0.00 0.00 0.00 57 1016.8
20260901170705 73 116 2.6 6.1 0.00 0.00 0.00 55 1016.9
20260901170204 73 76 4.3 7.0 0.00 0.00 0.00 53 1017.0
20260901164205 72 109 3.5 7.8 0.00 0.00 0.00 54 1017.1
20260901162704 72 38 4.3 10.4 0.00 0.00 0.00 54 1017.2
20260901162205 71 59 2.6 10.4 0.00 0.00 0.00 55 1017.2
20260901160704 71 20 3.5 7.0 0.00 0.00 0.00 58 1017.2
20260901160204 71 57 4.3 7.0 0.00 0.00 0.00 57 1017.4
20260901154704 72 125 1.7 6.1 0.00 0.00 0.00 61 1017.4
20260901154204 72 65 2.6 7.0 0.00 0.00 0.00 58 1017.5
20260901152704 71 80 2.6 6.1 0.00 0.00 0.00 63 1017.5
20260901152205 70 53 1.7 6.1 0.00 0.00 0.00 63 1017.6
20260901150704 69 46 2.6 7.0 0.00 0.00 0.00 63 1017.7
20260901150204 69 75 2.6 7.8 0.00 0.00 0.00 66 1017.6
20260901144704 68 75 2.6 6.1 0.00 0.00 0.00 67 1017.5
20260901144204 68 45 2.6 6.1 0.00 0.00 0.00 68 1017.5
20260901142704 67 80 4.3 7.0 0.00 0.00 0.00 69 1017.6
20260901142204 67 86 2.6 7.8 0.00 0.00 0.00 69 1017.6
20260901140704 66 77 2.6 6.1 0.00 0.00 0.00 70 1017.6
20260901140204 66 75 3.5 7.0 0.00 0.00 0.00 70 1017.5
20260901134704 65 41 2.6 5.2 0.00 0.00 0.00 73 1017.6
20260901134204 64 77 3.5 7.8 0.00 0.00 0.00 73 1017.7
20260901132705 63 58 3.5 7.0 0.00 0.00 0.00 76 1017.8
20260901132204 62 53 1.7 5.2 0.00 0.00 0.00 78 1017.9
20260901130704 60 65 2.6 5.2 0.00 0.00 0.00 81 1018.0
20260901130204 59 38 2.6 5.2 0.00 0.00 0.00 80 1017.9
20260901124704 58 53 0.9 2.6 0.00 0.00 0.00 83 1017.9
20260901124204 58 51 2.6 4.3 0.00 0.00 0.00 83 1017.9
20260901122704 59 43 1.7 2.6 0.00 0.00 0.00 83 1017.9
20260901122204 58 48 1.7 4.3 0.00 0.00 0.00 84 1017.9
20260901120703 58 65 0.9 2.6 0.00 0.00 0.00 86 1018.1
20260901114704 56 65 0.9 2.6 0.00 0.00 0.00 87 1018.1
20260901114203 56 65 1.7 2.6 0.00 0.00 0.00 88 1018.1
20260901112704 55 65 0.0 1.7 0.00 0.00 0.00 91 1018.2
20260901112204 55 65 0.9 1.7 0.00 0.00 0.00 91 1018.2
20260901110704 54 65 0.0 0.0 0.00 0.00 0.00 91 1017.9
20260901110203 54 65 0.9 1.7 0.00 0.00 0.00 91 1017.8
20260901104704 53 65 0.9 1.7 0.00 0.01 0.00 91 1017.4